,,Stat6,,Stat2,,Stat8,,Stat9,,Stat10,,Wind1,,Wind1,
time,status,PA1M_AVG,status,PR1M_SUM,status,RH1M_AVG,status,SR1M_AVG,status,TA1M_AVG,status,W1dAve1m,status,W1sAve1m,
2007-07-03, 00:00:00,VALID,918.415,VALID,0,VALID,99.3466,VALID,-0.0339617,VALID,18.3563,VALID,124,VALID,1.24498,
2007-07-03, 00:01:00,VALID,918.369,VALID,0,VALID,99.2932,VALID,-0.0169808,VALID,18.3524,VALID,129,VALID,1.37855,
2007-07-03, 00:02:00,VALID,918.345,VALID,0,VALID,99.086,VALID,-0.0339617,VALID,18.3658,VALID,131,VALID,1.54457,
2007-07-03, 00:03:00,VALID,918.301,VALID,0,VALID,99.0249,VALID,-0.0169808,VALID,18.3725,VALID,127,VALID,1.49498,
2007-07-03, 00:04:00,VALID,918.282,VALID,0,VALID,99.0084,VALID,-0.0679233,VALID,18.4052,VALID,129,VALID,1.43988,
2007-07-03, 00:05:00,VALID,918.268,VALID,0,VALID,98.8494,VALID,-0.0169808,VALID,18.4406,VALID,126,VALID,1.39426,
2007-07-03, 00:06:00,VALID,918.245,VALID,0,VALID,98.4972,VALID,-0.0339617,VALID,18.4636,VALID,126,VALID,1.23574,
2007-07-03, 00:07:00,VALID,918.249,VALID,0,VALID,98.2874,VALID,-0.0169808,VALID,18.4671,VALID,126,VALID,1.35696,
2007-07-03, 00:08:00,VALID,918.254,VALID,0,VALID,98.2238,VALID,0,VALID,18.4958,VALID,124,VALID,1.36428,
2007-07-03, 00:09:00,VALID,918.253,VALID,0,VALID,97.9466,VALID,-0.0169808,VALID,18.5185,VALID,123,VALID,1.48171,
2007-07-03, 00:10:00,VALID,918.267,VALID,0,VALID,97.7482,VALID,-0.0169808,VALID,18.5609,VALID,125,VALID,1.62984,
2007-07-03, 00:11:00,VALID,918.259,VALID,0,VALID,97.2193,VALID,0,VALID,18.5898,VALID,124,VALID,1.65402,
2007-07-03, 00:12:00,VALID,918.268,VALID,0,VALID,96.4817,VALID,0,VALID,18.5639,VALID,133,VALID,1.76101,
2007-07-03, 00:13:00,VALID,918.265,VALID,0,VALID,95.6641,VALID,0.0169808,VALID,18.5148,VALID,136,VALID,2.07685,
2007-07-03, 00:14:00,VALID,918.282,VALID,0,VALID,94.9202,VALID,-0.0339617,VALID,18.4793,VALID,130,VALID,2.09819,
2007-07-03, 00:15:00,VALID,918.264,VALID,0,VALID,94.5235,VALID,-0.0169808,VALID,18.4569,VALID,130,VALID,2.18043,
2007-07-03, 00:16:00,VALID,918.271,VALID,0,VALID,94.6977,VALID,0,VALID,18.4434,VALID,133,VALID,1.91313,
2007-07-03, 00:17:00,VALID,918.269,VALID,0,VALID,94.7841,VALID,0,VALID,18.3978,VALID,131,VALID,1.51265,
2007-07-03, 00:18:00,VALID,918.272,VALID,0,VALID,95.1605,VALID,-0.0169808,VALID,18.3299,VALID,133,VALID,1.47526,
2007-07-03, 00:19:00,VALID,918.266,VALID,0,VALID,95.3958,VALID,0.0169808,VALID,18.2683,VALID,139,VALID,1.74926,
2007-07-03, 00:20:00,VALID,918.275,VALID,0,VALID,95.4466,VALID,0,VALID,18.2162,VALID,142,VALID,1.56146,
2007-07-03, 00:21:00,VALID,918.263,VALID,0,VALID,95.3589,VALID,0,VALID,18.1937,VALID,143,VALID,1.72532,
2007-07-03, 00:22:00,VALID,918.276,VALID,0,VALID,95.2406,VALID,0,VALID,18.1872,VALID,144,VALID,1.30087,
2007-07-03, 00:23:00,VALID,918.27,VALID,0,VALID,95.0295,VALID,-0.0339617,VALID,18.1682,VALID,146,VALID,1.42038,
2007-07-03, 00:24:00,VALID,918.272,VALID,0,VALID,94.76,VALID,0,VALID,18.1578,VALID,139,VALID,1.32564,
2007-07-03, 00:25:00,VALID,918.279,VALID,0,VALID,94.4548,VALID,-0.0169808,VALID,18.1745,VALID,143,VALID,1.26472,
2007-07-03, 00:26:00,VALID,918.277,VALID,0,VALID,94.2094,VALID,0,VALID,18.1842,VALID,142,VALID,1.58984,
2007-07-03, 00:27:00,VALID,918.269,VALID,0,VALID,93.8533,VALID,0,VALID,18.2104,VALID,147,VALID,1.49714,
2007-07-03, 00:28:00,VALID,918.252,VALID,0,VALID,93.5647,VALID,0,VALID,18.2428,VALID,141,VALID,1.27725,
2007-07-03, 00:29:00,VALID,918.235,VALID,0,VALID,93.4439,VALID,-0.0169808,VALID,18.2685,VALID,143,VALID,1.36137,
2007-07-03, 00:30:00,VALID,918.217,VALID,0,VALID,93.2989,VALID,-0.0169808,VALID,18.3044,VALID,142,VALID,1.45294,
2007-07-03, 00:31:00,VALID,918.214,VALID,0,VALID,93.2277,VALID,0,VALID,18.3336,VALID,139,VALID,1.23401,
2007-07-03, 00:32:00,VALID,918.193,VALID,0,VALID,93.5876,VALID,-0.0169808,VALID,18.3788,VALID,140,VALID,1.62287,
2007-07-03, 00:33:00,VALID,918.188,VALID,0,VALID,93.702,VALID,0,VALID,18.4369,VALID,135,VALID,1.63642,
2007-07-03, 00:34:00,VALID,918.191,VALID,0,VALID,93.3688,VALID,0,VALID,18.4858,VALID,137,VALID,1.57217,
2007-07-03, 00:35:00,VALID,918.188,VALID,0,VALID,92.8538,VALID,-0.0169808,VALID,18.5113,VALID,142,VALID,1.45295,
2007-07-03, 00:36:00,VALID,918.168,VALID,0,VALID,92.2981,VALID,0,VALID,18.5437,VALID,140,VALID,1.27379,
2007-07-03, 00:37:00,VALID,918.146,VALID,0,VALID,91.9917,VALID,0,VALID,18.5729,VALID,145,VALID,1.27954,
2007-07-03, 00:38:00,VALID,918.128,VALID,0,VALID,91.8416,VALID,-0.0169808,VALID,18.5697,VALID,146,VALID,1.24148,
2007-07-03, 00:39:00,VALID,918.104,VALID,0,VALID,91.8009,VALID,0.0169808,VALID,18.5602,VALID,149,VALID,1.26953,
2007-07-03, 00:40:00,VALID,918.075,VALID,0,VALID,91.8951,VALID,0,VALID,18.5372,VALID,152,VALID,1.28906,
2007-07-03, 00:41:00,VALID,918.049,VALID,0,VALID,92.0807,VALID,0.0169808,VALID,18.5245,VALID,150,VALID,1.20108,
2007-07-03, 00:42:00,VALID,918.035,VALID,0,VALID,92.3872,VALID,0.0169808,VALID,18.4951,VALID,144,VALID,1.2302,
2007-07-03, 00:43:00,VALID,918.021,VALID,0,VALID,92.5321,VALID,-0.0169808,VALID,18.4793,VALID,137,VALID,1.34821,
2007-07-03, 00:44:00,VALID,917.998,VALID,0,VALID,92.4444,VALID,-0.0169808,VALID,18.4726,VALID,133,VALID,1.12591,
2007-07-03, 00:45:00,VALID,918.004,VALID,0,VALID,92.3808,VALID,0,VALID,18.4791,VALID,133,VALID,0.978819,
2007-07-03, 00:46:00,VALID,917.989,VALID,0,VALID,92.4571,VALID,0.0169808,VALID,18.4661,VALID,144,VALID,0.950838,
2007-07-03, 00:47:00,VALID,917.972,VALID,0,VALID,92.6135,VALID,0.0169808,VALID,18.4629,VALID,147,VALID,1.25657,
2007-07-03, 00:48:00,VALID,917.972,VALID,0,VALID,92.5652,VALID,0,VALID,18.4724,VALID,142,VALID,1.23328,
2007-07-03, 00:49:00,VALID,917.959,VALID,0,VALID,92.3821,VALID,-0.0169808,VALID,18.5081,VALID,137,VALID,1.14589,
2007-07-03, 00:50:00,VALID,917.93,VALID,0,VALID,92.3096,VALID,0,VALID,18.5213,VALID,135,VALID,1.04821,
2007-07-03, 00:51:00,VALID,917.919,VALID,0,VALID,92.5029,VALID,0,VALID,18.4789,VALID,132,VALID,1.21566,
2007-07-03, 00:52:00,VALID,917.905,VALID,0,VALID,92.6402,VALID,-0.0509425,VALID,18.4464,VALID,133,VALID,1.24618,
2007-07-03, 00:53:00,VALID,917.887,VALID,0,VALID,93.0191,VALID,0.0169808,VALID,18.4432,VALID,139,VALID,1.4891,
2007-07-03, 00:54:00,VALID,917.871,VALID,0,VALID,93.5125,VALID,0,VALID,18.4694,VALID,140,VALID,1.39615,
2007-07-03, 00:55:00,VALID,917.867,VALID,0,VALID,93.5825,VALID,0,VALID,18.4557,VALID,140,VALID,1.0696,
2007-07-03, 00:56:00,VALID,917.853,VALID,0,VALID,93.9283,VALID,0,VALID,18.4235,VALID,132,VALID,1.2223,
2007-07-03, 00:57:00,VALID,917.841,VALID,0,VALID,94.4294,VALID,0,VALID,18.3746,VALID,135,VALID,1.36319,
2007-07-03, 00:58:00,VALID,917.832,VALID,0,VALID,94.8731,VALID,0,VALID,18.3586,VALID,135,VALID,1.44967,
2007-07-03, 00:59:00,VALID,917.828,VALID,0,VALID,94.9431,VALID,-0.0169808,VALID,18.3357,VALID,133,VALID,1.24688,
2007-07-03, 01:00:00,VALID,917.844,VALID,0,VALID,95.1338,VALID,0,VALID,18.2998,VALID,137,VALID,1.34539,
2007-07-03, 01:01:00,VALID,917.832,VALID,0,VALID,95.1669,VALID,0,VALID,18.2708,VALID,137,VALID,1.29859,
2007-07-03, 01:02:00,VALID,917.822,VALID,0,VALID,95.2839,VALID,0.0169808,VALID,18.2521,VALID,132,VALID,1.18826,
2007-07-03, 01:03:00,VALID,917.827,VALID,0,VALID,95.4123,VALID,0.0169808,VALID,18.1932,VALID,126,VALID,1.15607,
2007-07-03, 01:04:00,VALID,917.813,VALID,0,VALID,95.7175,VALID,0,VALID,18.1645,VALID,127,VALID,1.27396,
2007-07-03, 01:05:00,VALID,917.81,VALID,0,VALID,95.809,VALID,-0.0169808,VALID,18.1321,VALID,126,VALID,1.21797,
2007-07-03, 01:06:00,VALID,917.809,VALID,0,VALID,96.0341,VALID,0,VALID,18.0932,VALID,129,VALID,1.31486,
2007-07-03, 01:07:00,VALID,917.814,VALID,0,VALID,96.2668,VALID,0.0169808,VALID,18.0441,VALID,128,VALID,1.39336,
2007-07-03, 01:08:00,VALID,917.838,VALID,0,VALID,96.3304,VALID,0.0339617,VALID,18.0311,VALID,128,VALID,1.23158,
2007-07-03, 01:09:00,VALID,917.855,VALID,0,VALID,96.4359,VALID,0,VALID,17.9989,VALID,128,VALID,1.49014,
2007-07-03, 01:10:00,VALID,917.87,VALID,0,VALID,96.4983,VALID,-0.0169808,VALID,17.9961,VALID,127,VALID,1.38091,
2007-07-03, 01:11:00,VALID,917.867,VALID,0,VALID,96.5491,VALID,0.0169808,VALID,17.954,VALID,122,VALID,1.31421,
2007-07-03, 01:12:00,VALID,917.857,VALID,0,VALID,96.7717,VALID,0,VALID,17.9276,VALID,124,VALID,1.39913,
2007-07-03, 01:13:00,VALID,917.83,VALID,0,VALID,96.9586,VALID,0,VALID,17.8984,VALID,120,VALID,1.29599,
2007-07-03, 01:14:00,VALID,917.831,VALID,0,VALID,97.204,VALID,-0.0169808,VALID,17.8532,VALID,122,VALID,1.38077,
2007-07-03, 01:15:00,VALID,917.81,VALID,0,VALID,97.5105,VALID,-0.118866,VALID,17.8224,VALID,121,VALID,1.40152,
2007-07-03, 01:16:00,VALID,917.799,VALID,0,VALID,97.6986,VALID,-0.118866,VALID,17.7767,VALID,119,VALID,1.41597,
2007-07-03, 01:17:00,VALID,917.791,VALID,0,VALID,97.9937,VALID,-0.118866,VALID,17.7218,VALID,113,VALID,1.51973,
2007-07-03, 01:18:00,VALID,917.792,VALID,0,VALID,98.3701,VALID,-0.118866,VALID,17.6924,VALID,112,VALID,1.43521,
2007-07-03, 01:19:00,VALID,917.802,VALID,0,VALID,98.6053,VALID,-0.118866,VALID,17.6535,VALID,114,VALID,1.49809,
2007-07-03, 01:20:00,VALID,917.784,VALID,0,VALID,98.8088,VALID,-0.118866,VALID,17.6537,VALID,115,VALID,1.53795,
2007-07-03, 01:21:00,VALID,917.774,VALID,0,VALID,98.7655,VALID,-0.118866,VALID,17.6438,VALID,119,VALID,1.54833,
2007-07-03, 01:22:00,VALID,917.77,VALID,0,VALID,98.8609,VALID,-0.135847,VALID,17.631,VALID,120,VALID,1.73256,
2007-07-03, 01:23:00,VALID,917.763,VALID,0,VALID,98.9156,VALID,-0.135847,VALID,17.6345,VALID,123,VALID,1.72713,
2007-07-03, 01:24:00,VALID,917.752,VALID,0,VALID,98.8571,VALID,-0.152827,VALID,17.6403,VALID,128,VALID,1.59464,
2007-07-03, 01:25:00,VALID,917.744,VALID,0,VALID,98.8126,VALID,-0.118866,VALID,17.6442,VALID,129,VALID,1.86477,
2007-07-03, 01:26:00,VALID,917.721,VALID,0,VALID,98.9931,VALID,-0.101885,VALID,17.6595,VALID,126,VALID,1.58067,
2007-07-03, 01:27:00,VALID,917.715,VALID,0,VALID,98.618,VALID,-0.135847,VALID,17.6764,VALID,121,VALID,1.4691,
2007-07-03, 01:28:00,VALID,917.7,VALID,0,VALID,98.4896,VALID,-0.152827,VALID,17.644,VALID,123,VALID,1.48419,
2007-07-03, 01:29:00,VALID,917.694,VALID,0,VALID,98.7528,VALID,-0.0679233,VALID,17.6368,VALID,122,VALID,1.58079,
2007-07-03, 01:30:00,VALID,917.667,VALID,0,VALID,98.5989,VALID,0.0679233,VALID,17.6219,VALID,119,VALID,1.39353,
2007-07-03, 01:31:00,VALID,917.644,VALID,0,VALID,98.8698,VALID,0.0849042,VALID,17.6117,VALID,123,VALID,1.66297,
2007-07-03, 01:32:00,VALID,917.626,VALID,0,VALID,98.8736,VALID,0.101885,VALID,17.6506,VALID,126,VALID,1.52954,
2007-07-03, 01:33:00,VALID,917.606,VALID,0,VALID,98.5494,VALID,0.101885,VALID,17.664,VALID,131,VALID,1.39117,
2007-07-03, 01:34:00,VALID,917.602,VALID,0,VALID,98.3167,VALID,0.0849042,VALID,17.6608,VALID,136,VALID,1.32396,
2007-07-03, 01:35:00,VALID,917.587,VALID,0,VALID,98.3497,VALID,0.0509425,VALID,17.6406,VALID,132,VALID,1.51334,
2007-07-03, 01:36:00,VALID,917.586,VALID,0,VALID,98.2747,VALID,0.101885,VALID,17.6406,VALID,136,VALID,1.6131,
2007-07-03, 01:37:00,VALID,917.566,VALID,0,VALID,98.2989,VALID,0.0679233,VALID,17.6406,VALID,134,VALID,1.52699,
2007-07-03, 01:38:00,VALID,917.557,VALID,0,VALID,98.2276,VALID,0.101885,VALID,17.6696,VALID,137,VALID,1.58176,
2007-07-03, 01:39:00,VALID,917.549,VALID,0,VALID,97.9848,VALID,0.101885,VALID,17.7025,VALID,121,VALID,1.33365,
2007-07-03, 01:40:00,VALID,917.543,VALID,0,VALID,97.8156,VALID,0.101885,VALID,17.6891,VALID,122,VALID,1.35902,
2007-07-03, 01:41:00,VALID,917.548,VALID,0,VALID,97.747,VALID,0.101885,VALID,17.7087,VALID,121,VALID,1.33408,
2007-07-03, 01:42:00,VALID,917.53,VALID,0,VALID,97.8868,VALID,0.0679233,VALID,17.7254,VALID,122,VALID,1.53234,
2007-07-03, 01:43:00,VALID,917.545,VALID,0,VALID,97.8411,VALID,0.0849042,VALID,17.731,VALID,123,VALID,1.20948,
2007-07-03, 01:44:00,VALID,917.548,VALID,0,VALID,97.6313,VALID,0.0169808,VALID,17.7421,VALID,125,VALID,1.20967,
2007-07-03, 01:45:00,VALID,917.554,VALID,0,VALID,97.4876,VALID,-0.101885,VALID,17.7371,VALID,130,VALID,0.991832,
2007-07-03, 01:46:00,VALID,917.561,VALID,0,VALID,97.5143,VALID,-0.0679233,VALID,17.7179,VALID,130,VALID,1.18695,
2007-07-03, 01:47:00,VALID,917.563,VALID,0,VALID,97.6249,VALID,-0.135847,VALID,17.7084,VALID,131,VALID,1.36246,
2007-07-03, 01:48:00,VALID,917.56,VALID,0,VALID,97.6974,VALID,-0.0679233,VALID,17.7015,VALID,142,VALID,1.51007,
2007-07-03, 01:49:00,VALID,917.55,VALID,0,VALID,97.7724,VALID,-0.0849042,VALID,17.7402,VALID,137,VALID,1.44661,
2007-07-03, 01:50:00,VALID,917.556,VALID,0,VALID,97.3604,VALID,-0.101885,VALID,17.7598,VALID,140,VALID,1.21627,
2007-07-03, 01:51:00,VALID,917.553,VALID,0,VALID,97.368,VALID,-0.101885,VALID,17.7925,VALID,139,VALID,1.33132,
2007-07-03, 01:52:00,VALID,917.537,VALID,0,VALID,97.2129,VALID,-0.101885,VALID,17.8249,VALID,140,VALID,1.53379,
2007-07-03, 01:53:00,VALID,917.527,VALID,0,VALID,97.2091,VALID,-0.0679233,VALID,17.8569,VALID,132,VALID,1.53465,
2007-07-03, 01:54:00,VALID,917.517,VALID,0,VALID,96.8797,VALID,-0.101885,VALID,17.9092,VALID,136,VALID,1.67274,
2007-07-03, 01:55:00,VALID,917.495,VALID,0,VALID,96.6063,VALID,-0.101885,VALID,17.9618,VALID,133,VALID,1.52001,
2007-07-03, 01:56:00,VALID,917.455,VALID,0,VALID,96.1791,VALID,-0.0849042,VALID,17.9445,VALID,137,VALID,1.30051,
2007-07-03, 01:57:00,VALID,917.434,VALID,0,VALID,96.1524,VALID,-0.0849042,VALID,17.9414,VALID,143,VALID,1.35337,
2007-07-03, 01:58:00,VALID,917.412,VALID,0,VALID,96.1473,VALID,-0.0679233,VALID,17.9514,VALID,138,VALID,1.59979,
2007-07-03, 01:59:00,VALID,917.391,VALID,0,VALID,96.0176,VALID,-0.0679233,VALID,17.954,VALID,135,VALID,1.70103,
2007-07-03, 02:00:00,VALID,917.376,VALID,0,VALID,95.9807,VALID,0,VALID,17.976,VALID,133,VALID,1.73983,
2007-07-03, 02:01:00,VALID,917.382,VALID,0,VALID,95.7505,VALID,0,VALID,18.0181,VALID,136,VALID,1.38104,
2007-07-03, 02:02:00,VALID,917.373,VALID,0,VALID,95.5128,VALID,0,VALID,18.0114,VALID,128,VALID,1.38247,
2007-07-03, 02:03:00,VALID,917.359,VALID,0,VALID,95.734,VALID,0,VALID,18.0283,VALID,123,VALID,1.24355,
2007-07-03, 02:04:00,VALID,917.349,VALID,0,VALID,95.6526,VALID,0,VALID,18.0214,VALID,126,VALID,1.05741,
2007-07-03, 02:05:00,VALID,917.346,VALID,0,VALID,95.6984,VALID,0,VALID,18.0153,VALID,126,VALID,1.14405,
2007-07-03, 02:06:00,VALID,917.34,VALID,0,VALID,95.6183,VALID,0.0169808,VALID,17.9792,VALID,126,VALID,1.05287,
2007-07-03, 02:07:00,VALID,917.323,VALID,0,VALID,95.7442,VALID,0,VALID,17.957,VALID,126,VALID,1.02422,
2007-07-03, 02:08:00,VALID,917.309,VALID,0,VALID,95.9744,VALID,0,VALID,17.9276,VALID,126,VALID,0.983842,
2007-07-03, 02:09:00,VALID,917.307,VALID,0,VALID,95.9756,VALID,-0.0169808,VALID,17.875,VALID,126,VALID,1.0538,
2007-07-03, 02:10:00,VALID,917.289,VALID,0,VALID,96.2172,VALID,0,VALID,17.8298,VALID,126,VALID,1.15206,
2007-07-03, 02:11:00,VALID,917.286,VALID,0,VALID,96.5033,VALID,0.0509425,VALID,17.7972,VALID,126,VALID,1.0536,
2007-07-03, 02:12:00,VALID,917.282,VALID,0,VALID,96.5402,VALID,0,VALID,17.7754,VALID,130,VALID,0.974702,
2007-07-03, 02:13:00,VALID,917.266,VALID,0,VALID,96.647,VALID,0,VALID,17.7365,VALID,141,VALID,1.15774,
2007-07-03, 02:14:00,VALID,917.254,VALID,0,VALID,96.937,VALID,-0.0169808,VALID,17.7235,VALID,142,VALID,1.27883,
2007-07-03, 02:15:00,VALID,917.249,VALID,0,VALID,97.1201,VALID,0,VALID,17.7105,VALID,143,VALID,1.35709,
2007-07-03, 02:16:00,VALID,917.234,VALID,0,VALID,97.1849,VALID,0,VALID,17.7001,VALID,146,VALID,1.41545,
2007-07-03, 02:17:00,VALID,917.242,VALID,0,VALID,97.2867,VALID,0,VALID,17.7455,VALID,145,VALID,1.37344,
2007-07-03, 02:18:00,VALID,917.236,VALID,0,VALID,97.1417,VALID,0.0169808,VALID,17.7879,VALID,139,VALID,1.32404,
2007-07-03, 02:19:00,VALID,917.257,VALID,0,VALID,96.8149,VALID,-0.0169808,VALID,17.8208,VALID,139,VALID,1.31595,
2007-07-03, 02:20:00,VALID,917.265,VALID,0,VALID,96.5517,VALID,0.0339617,VALID,17.8266,VALID,142,VALID,1.21966,
2007-07-03, 02:21:00,VALID,917.271,VALID,0,VALID,96.5758,VALID,0.0169808,VALID,17.8141,VALID,139,VALID,1.17147,
2007-07-03, 02:22:00,VALID,917.268,VALID,0,VALID,96.6992,VALID,0,VALID,17.8335,VALID,134,VALID,1.37909,
2007-07-03, 02:23:00,VALID,917.278,VALID,0,VALID,96.5949,VALID,0.0169808,VALID,17.8331,VALID,138,VALID,1.43434,
2007-07-03, 02:24:00,VALID,917.29,VALID,0,VALID,96.427,VALID,0.0339617,VALID,17.8331,VALID,140,VALID,1.36204,
2007-07-03, 02:25:00,VALID,917.305,VALID,0,VALID,96.4143,VALID,-0.0169808,VALID,17.7972,VALID,140,VALID,1.26094,
2007-07-03, 02:26:00,VALID,917.319,VALID,0,VALID,96.5517,VALID,0.0339617,VALID,17.7615,VALID,141,VALID,1.27489,
2007-07-03, 02:27:00,VALID,917.349,VALID,0,VALID,96.5822,VALID,0.0339617,VALID,17.7321,VALID,140,VALID,1.16566,
2007-07-03, 02:28:00,VALID,917.361,VALID,0,VALID,96.5631,VALID,0.0339617,VALID,17.7196,VALID,137,VALID,1.16842,
2007-07-03, 02:29:00,VALID,917.367,VALID,0,VALID,96.5682,VALID,0,VALID,17.6904,VALID,139,VALID,1.18359,
2007-07-03, 02:30:00,VALID,917.359,VALID,0,VALID,96.7208,VALID,0.0169808,VALID,17.6707,VALID,139,VALID,1.37393,
2007-07-03, 02:31:00,VALID,917.329,VALID,0,VALID,96.7221,VALID,0.0169808,VALID,17.661,VALID,138,VALID,1.43005,
2007-07-03, 02:32:00,VALID,917.324,VALID,0,VALID,96.7767,VALID,0,VALID,17.6645,VALID,135,VALID,1.34691,
2007-07-03, 02:33:00,VALID,917.316,VALID,0,VALID,96.6318,VALID,0,VALID,17.6418,VALID,140,VALID,1.25156,
2007-07-03, 02:34:00,VALID,917.306,VALID,0,VALID,96.6725,VALID,0.0169808,VALID,17.6091,VALID,135,VALID,1.28773,
2007-07-03, 02:35:00,VALID,917.322,VALID,0,VALID,96.9293,VALID,0,VALID,17.5899,VALID,131,VALID,1.43864,
2007-07-03, 02:36:00,VALID,917.318,VALID,0,VALID,97.0857,VALID,0,VALID,17.5966,VALID,127,VALID,1.37793,
2007-07-03, 02:37:00,VALID,917.312,VALID,0,VALID,96.8365,VALID,0,VALID,17.5672,VALID,121,VALID,1.00243,
2007-07-03, 02:38:00,VALID,917.291,VALID,0,VALID,96.8886,VALID,0,VALID,17.5248,VALID,118,VALID,1.23739,
2007-07-03, 02:39:00,VALID,917.285,VALID,0,VALID,97.0857,VALID,0,VALID,17.5088,VALID,127,VALID,1.36861,
2007-07-03, 02:40:00,VALID,917.267,VALID,0,VALID,97.0476,VALID,0,VALID,17.5093,VALID,126,VALID,1.54745,
2007-07-03, 02:41:00,VALID,917.257,VALID,0,VALID,97.0896,VALID,0,VALID,17.4926,VALID,124,VALID,1.44922,
2007-07-03, 02:42:00,VALID,917.242,VALID,0,VALID,97.0196,VALID,0,VALID,17.4766,VALID,118,VALID,1.4544,
2007-07-03, 02:43:00,VALID,917.238,VALID,0,VALID,96.9052,VALID,-0.0169808,VALID,17.4442,VALID,111,VALID,1.32369,
2007-07-03, 02:44:00,VALID,917.229,VALID,0,VALID,97.0234,VALID,-0.0509425,VALID,17.3923,VALID,118,VALID,1.39618,
2007-07-03, 02:45:00,VALID,917.224,VALID,0,VALID,97.1646,VALID,0.0169808,VALID,17.3532,VALID,120,VALID,1.52668,
2007-07-03, 02:46:00,VALID,917.214,VALID,0,VALID,97.3998,VALID,-0.0169808,VALID,17.3599,VALID,123,VALID,1.64101,
2007-07-03, 02:47:00,VALID,917.2,VALID,0,VALID,97.1519,VALID,0.0339617,VALID,17.3854,VALID,123,VALID,1.6184,
2007-07-03, 02:48:00,VALID,917.197,VALID,0,VALID,96.7831,VALID,-0.0169808,VALID,17.4083,VALID,122,VALID,1.51781,
2007-07-03, 02:49:00,VALID,917.188,VALID,0,VALID,96.4499,VALID,0.0169808,VALID,17.4245,VALID,122,VALID,1.44016,
2007-07-03, 02:50:00,VALID,917.183,VALID,0,VALID,96.202,VALID,-0.0169808,VALID,17.4377,VALID,128,VALID,1.35365,
2007-07-03, 02:51:00,VALID,917.176,VALID,0,VALID,96.0278,VALID,-0.0339617,VALID,17.4505,VALID,126,VALID,1.44812,
2007-07-03, 02:52:00,VALID,917.172,VALID,0,VALID,95.7238,VALID,0,VALID,17.4669,VALID,125,VALID,1.40972,
2007-07-03, 02:53:00,VALID,917.163,VALID,0,VALID,95.5153,VALID,-0.0169808,VALID,17.4991,VALID,124,VALID,1.56871,
2007-07-03, 02:54:00,VALID,917.159,VALID,0,VALID,95.191,VALID,-0.0169808,VALID,17.5317,VALID,125,VALID,1.54844,
2007-07-03, 02:55:00,VALID,917.142,VALID,0,VALID,94.9418,VALID,0,VALID,17.5378,VALID,123,VALID,1.29062,
2007-07-03, 02:56:00,VALID,917.128,VALID,0,VALID,94.8274,VALID,-0.0169808,VALID,17.5023,VALID,122,VALID,1.28163,
2007-07-03, 02:57:00,VALID,917.121,VALID,0,VALID,94.9634,VALID,0,VALID,17.4537,VALID,113,VALID,1.44829,
2007-07-03, 02:58:00,VALID,917.117,VALID,0,VALID,95.0067,VALID,0.0339617,VALID,17.4113,VALID,113,VALID,1.46927,
2007-07-03, 02:59:00,VALID,917.127,VALID,0,VALID,95.0575,VALID,-0.0339617,VALID,17.3474,VALID,108,VALID,1.48478,
2007-07-03, 03:00:00,VALID,917.113,VALID,0,VALID,95.3831,VALID,-0.0509425,VALID,17.2895,VALID,114,VALID,1.60212,
2007-07-03, 03:01:00,VALID,917.108,VALID,0,VALID,95.7467,VALID,-0.0849042,VALID,17.283,VALID,120,VALID,1.51372,
2007-07-03, 03:02:00,VALID,917.112,VALID,0,VALID,95.5687,VALID,-0.0679233,VALID,17.267,VALID,119,VALID,1.45295,
2007-07-03, 03:03:00,VALID,917.116,VALID,0,VALID,95.6145,VALID,-0.0849042,VALID,17.2506,VALID,120,VALID,1.54036,
2007-07-03, 03:04:00,VALID,917.112,VALID,0,VALID,95.4555,VALID,-0.101885,VALID,17.2471,VALID,120,VALID,1.59215,
2007-07-03, 03:05:00,VALID,917.094,VALID,0,VALID,95.4199,VALID,-0.101885,VALID,17.2799,VALID,123,VALID,1.75481,
2007-07-03, 03:06:00,VALID,917.092,VALID,0,VALID,95.0448,VALID,-0.0849042,VALID,17.3381,VALID,123,VALID,1.60215,
2007-07-03, 03:07:00,VALID,917.082,VALID,0,VALID,94.7206,VALID,-0.0849042,VALID,17.3802,VALID,122,VALID,1.66276,
2007-07-03, 03:08:00,VALID,917.069,VALID,0,VALID,94.657,VALID,-0.101885,VALID,17.4032,VALID,129,VALID,1.74144,
2007-07-03, 03:09:00,VALID,917.07,VALID,0,VALID,94.5006,VALID,-0.101885,VALID,17.4291,VALID,126,VALID,1.34819,
2007-07-03, 03:10:00,VALID,917.066,VALID,0,VALID,94.5463,VALID,-0.0679233,VALID,17.396,VALID,124,VALID,1.66025,
2007-07-03, 03:11:00,VALID,917.065,VALID,0,VALID,94.7854,VALID,-0.101885,VALID,17.3867,VALID,120,VALID,1.64444,
2007-07-03, 03:12:00,VALID,917.077,VALID,0,VALID,95.1758,VALID,-0.0679233,VALID,17.3835,VALID,126,VALID,1.76438,
2007-07-03, 03:13:00,VALID,917.083,VALID,0,VALID,95.2432,VALID,-0.0849042,VALID,17.4224,VALID,134,VALID,1.86738,
2007-07-03, 03:14:00,VALID,917.088,VALID,0,VALID,95.0207,VALID,-0.0679233,VALID,17.4544,VALID,136,VALID,1.71166,
2007-07-03, 03:15:00,VALID,917.092,VALID,0,VALID,95.1147,VALID,-0.0169808,VALID,17.4602,VALID,139,VALID,1.78218,
2007-07-03, 03:16:00,VALID,917.108,VALID,0,VALID,95.0779,VALID,0,VALID,17.4959,VALID,138,VALID,1.83363,
2007-07-03, 03:17:00,VALID,917.083,VALID,0,VALID,94.9749,VALID,0,VALID,17.5088,VALID,137,VALID,1.5767,
2007-07-03, 03:18:00,VALID,917.092,VALID,0,VALID,95.0537,VALID,0,VALID,17.5021,VALID,136,VALID,1.85918,
2007-07-03, 03:19:00,VALID,917.098,VALID,0,VALID,95.0728,VALID,0.0169808,VALID,17.5056,VALID,129,VALID,1.65044,
2007-07-03, 03:20:00,VALID,917.087,VALID,0,VALID,95.2534,VALID,-0.0169808,VALID,17.4704,VALID,127,VALID,1.629,
2007-07-03, 03:21:00,VALID,917.083,VALID,0,VALID,95.4937,VALID,0,VALID,17.434,VALID,130,VALID,1.72257,
2007-07-03, 03:22:00,VALID,917.068,VALID,0,VALID,95.6348,VALID,0,VALID,17.415,VALID,130,VALID,1.61156,
2007-07-03, 03:23:00,VALID,917.051,VALID,0,VALID,95.5433,VALID,0,VALID,17.383,VALID,125,VALID,1.13743,
2007-07-03, 03:24:00,VALID,917.044,VALID,0,VALID,95.6221,VALID,-0.0169808,VALID,17.3113,VALID,120,VALID,1.13021,
2007-07-03, 03:25:00,VALID,917.017,VALID,0,VALID,96.2058,VALID,0,VALID,17.2884,VALID,116,VALID,1.32793,
2007-07-03, 03:26:00,VALID,917.013,VALID,0,VALID,96.2465,VALID,0,VALID,17.2879,VALID,115,VALID,1.09152,
2007-07-03, 03:27:00,VALID,917.001,VALID,0,VALID,96.1905,VALID,0.0169808,VALID,17.262,VALID,115,VALID,0.996982,
2007-07-03, 03:28:00,VALID,916.993,VALID,0,VALID,95.954,VALID,0,VALID,17.2103,VALID,115,VALID,0.742006,
2007-07-03, 03:29:00,VALID,916.992,VALID,0,VALID,95.8968,VALID,-0.0169808,VALID,17.1204,VALID,115,VALID,0.475472,
2007-07-03, 03:30:00,VALID,916.992,VALID,0,VALID,96.2681,VALID,-0.118866,VALID,17.056,VALID,115,VALID,0.483373,
2007-07-03, 03:31:00,VALID,916.997,VALID,0,VALID,96.7589,VALID,-0.118866,VALID,17.0632,VALID,115,VALID,0.540502,
2007-07-03, 03:32:00,VALID,916.989,VALID,0,VALID,97.0056,VALID,-0.101885,VALID,17.0629,VALID,115,VALID,0.418359,
2007-07-03, 03:33:00,VALID,916.984,VALID,0,VALID,97.6974,VALID,-0.135847,VALID,17.1146,VALID,115,VALID,0.6633,
2007-07-03, 03:34:00,VALID,916.972,VALID,0,VALID,97.8563,VALID,-0.101885,VALID,17.2084,VALID,115,VALID,0.834121,
2007-07-03, 03:35:00,VALID,916.966,VALID,0,VALID,97.0781,VALID,-0.101885,VALID,17.2019,VALID,115,VALID,0.58576,
2007-07-03, 03:36:00,VALID,916.961,VALID,0,VALID,96.8886,VALID,-0.101885,VALID,17.1727,VALID,115,VALID,0.291481,